Regional Weather Roundup
Issued by NWS Bismarck, ND

Home | Current Version | Previous Version | Text Only | Print | Product List | Glossary On
Versions: 1 2 3 4 5 6 7 8 9 10 11 12 13 14 15 16 17 18 19 20 21 22 23 24 25 26 27 28 29 30 31 32 33 34 35 36 37 38 39 40 41 42 43 44 45 46 47 48 49 50
000
ASUS43 KBIS 312310
RWRBIS

NWR BROADCAST TEXT
NATIONAL WEATHER SERVICE BISMARCK ND
600 PM CDT WED AUG 31 2016

NOTE: "FAIR" INDICATES FEW OR NO CLOUDS BELOW 12,000 FEET WITH NO
SIGNIFICANT WEATHER AND/OR OBSTRUCTIONS TO VISIBILITY.


CITY           SKY/WX    TMP DP  RH WIND       PRES   REMARKS
WILLISTON      SUNNY     96  45  17 S12G20    29.96F HX  92
MINOT          CLOUDY    75  61  61 E20G30    30.13F
MINOT AFB      CLOUDY    78  60  54 SE22G30   30.10F
BISMARCK       CLOUDY    80  60  50 E24G30    30.13R
DICKINSON      SUNNY     88  48  25 S24G32    30.06S
GARRISON         N/A     86  63  45 SE14G24   30.11S
HETTINGER ARPT SUNNY     88  52  29 S22G28    30.10F
JAMESTOWN      MOSUNNY   78  56  46 SE9       30.18S
CARRINGTON     FAIR      77  57  50 E6G13     30.21S
HAZEN          FAIR      88  55  33 S15G23    30.10S
LINTON         FAIR      77  66  69 E15G21    30.17R
MANDAN         FAIR      82  57  42 SE16G22   30.14R
OAKES            N/A    N/A N/A N/A MISG        N/A
RUGBY          FAIR      64  61  88 SE8       30.20F
STANLEY        FAIR      84  61  45 SE25G35   30.09S
WATFORD CITY   FAIR      93  46  20 S18G26    30.00S
$$

CITY           SKY/WX    TMP DP  RH WIND       PRES   REMARKS
GRAND FORKS    MOSUNNY   75  54  47 NE8       30.19S
GRAND FORKS AF SUNNY     73  55  53 NE3       30.21R
DEVILS LAKE    CLOUDY    72  55  55 E8        30.22R
FARGO          SUNNY     78  55  44 NE7       30.19R
CAVALIER       FAIR      72  54  53 NE5       30.22F
GRAFTON        FAIR      72  54  53 NE9       30.22F
GWINNER        FAIR      79  61  53 NE9       30.18S
LANGDON        FAIR      70  55  60 E10       30.24S
ROLLA          MOCLDY    68  52  56 SE10      30.22F
$$

CITY           SKY/WX    TMP DP  RH WIND       PRES   REMARKS
ABERDEEN       SUNNY     81  62  52 SE6       30.15F
MOBRIDGE       SUNNY     84  61  45 E18       30.10F
BUFFALO          N/A     87  48  25 SE29G38   30.02S
RAPID CITY     MOSUNNY   82  54  37 S20       30.14F
GLASGOW        SUNNY     98  39  13 S18G26    29.85F HX  93
SIDNEY         SUNNY     93  48  21 S16G23    29.94F
WOLF POINT     SUNNY     98  44  15 S12G18    29.88F HX  94
GLENDIVE       SUNNY     94  45  18 S22G28    29.96S HX  90
MILES CITY     SUNNY     96  39  13 S24       29.93S HX  91
BAKER          SUNNY     90  45  21 S28G33    30.05S
$$

CITY           SKY/WX    TMP DP  RH WIND       PRES   REMARKS
BILLINGS       MOSUNNY   97  30   9 SE15G21   29.91F HX  91
GREAT FALLS    CLOUDY    90  32  12 NW16G29   29.90S
REGINA         CLOUDY    77  57  50 E22G36    30.01F
ESTEVAN        PTSUNNY   77  61  57 E23G33    30.04F
$$




USA.gov is the U.S. government's official web portal to all federal, state and local government web resources and services.